• In Netherlands
  • List of Countries
  • For 7 days
  • Water Temperature
  • Satellite Maps
  • Weather Map
  • Weather Widgets
  • user-avatar
    Login

    Hourly Weather Sherpur

    Today, 19 February, Sunday

    Time Temperature Precipitation Wind Pressure Humidity
    00:00 +3°C° 0.4 mm 2 mps 606 mmHg 92%
    01:00 +4°C° 0.4 mm 2 mps 605 mmHg 92%
    02:00 +4°C° 0.4 mm 2 mps 605 mmHg 93%
    03:00 +4°C° 0.3 mm 2 mps 605 mmHg 93%
    04:00 +4°C° 0.3 mm 2 mps 605 mmHg 94%
    05:00 +4°C° 0 mm 2 mps 605 mmHg 92%
    06:00 +4°C° 0.2 mm 2 mps 606 mmHg 92%
    07:00 +4°C° 0.2 mm 2 mps 606 mmHg 91%
    08:00 +4°C° 0.2 mm 2 mps 606 mmHg 90%
    09:00 +4°C° 0.4 mm 3 mps 607 mmHg 86%
    10:00 +5°C° 0.4 mm 3 mps 607 mmHg 82%
    11:00 +7°C° 0 mm 3 mps 608 mmHg 77%
    12:00 +7°C° 0.4 mm 3 mps 608 mmHg 74%
    13:00 +7°C° 0.4 mm 3 mps 608 mmHg 71%
    14:00 +8°C° 0.4 mm 3 mps 608 mmHg 68%
    15:00 +7°C° 0.2 mm 3 mps 608 mmHg 66%
    16:00 +5°C° 0.2 mm 3 mps 608 mmHg 64%
    17:00 +5°C° 0.2 mm 3 mps 607 mmHg 63%
    18:00 +3°C° 0 mm 3 mps 607 mmHg 63%
    19:00 +1°C° 0 mm 3 mps 607 mmHg 64%
    20:00 -1°C° 0 mm 3 mps 607 mmHg 65%
    21:00 -3°C° 0 mm 4 mps 607 mmHg 64%
    22:00 -3°C° 0 mm 4 mps 607 mmHg 63%
    23:00 -4°C° 0 mm 4 mps 607 mmHg 62%

    Tomorrow, 20 February, Monday

    Time Temperature Precipitation Wind Pressure Humidity
    00:00 -4°C° 0 mm 4 mps 607 mmHg 60%
    01:00 -5°C° 0 mm 4 mps 607 mmHg 58%
    02:00 -5°C° 0 mm 4 mps 607 mmHg 55%
    03:00 -5°C° 0 mm 4 mps 607 mmHg 53%
    04:00 -7°C° 0 mm 4 mps 606 mmHg 51%
    05:00 -7°C° 0 mm 4 mps 606 mmHg 49%
    06:00 -7°C° 0 mm 4 mps 606 mmHg 46%
    07:00 -5°C° 0 mm 4 mps 607 mmHg 43%
    08:00 -5°C° 0 mm 4 mps 607 mmHg 41%
    09:00 -3°C° 0 mm 4 mps 607 mmHg 38%
    10:00 0°C° 0 mm 3 mps 607 mmHg 34%
    11:00 +3°C° 0 mm 3 mps 608 mmHg 31%
    12:00 +4°C° 0 mm 3 mps 607 mmHg 32%
    13:00 +4°C° 0 mm 3 mps 607 mmHg 33%
    14:00 +5°C° 0 mm 3 mps 606 mmHg 34%
    15:00 +5°C° 0 mm 3 mps 606 mmHg 36%
    16:00 +4°C° 0 mm 3 mps 606 mmHg 39%
    17:00 +4°C° 0 mm 2 mps 605 mmHg 41%
    18:00 +1°C° 0 mm 3 mps 605 mmHg 41%
    19:00 -1°C° 0 mm 3 mps 605 mmHg 41%
    20:00 -4°C° 0 mm 3 mps 605 mmHg 41%
    21:00 -4°C° 0 mm 4 mps 604 mmHg 39%
    22:00 -4°C° 0 mm 4 mps 604 mmHg 38%
    23:00 -5°C° 0 mm 4 mps 604 mmHg 37%

    Day after tomorrow, 21 February, Tuesday

    Time Temperature Precipitation Wind Pressure Humidity
    00:00 -5°C° 0 mm 4 mps 604 mmHg 35%
    01:00 -5°C° 0 mm 4 mps 604 mmHg 34%
    02:00 -5°C° 0 mm 3 mps 604 mmHg 32%
    03:00 -5°C° 0 mm 3 mps 603 mmHg 31%
    04:00 -5°C° 0 mm 3 mps 603 mmHg 30%
    05:00 -6°C° 0 mm 3 mps 603 mmHg 28%
    06:00 -5°C° 0 mm 3 mps 603 mmHg 28%
    07:00 -5°C° 0 mm 3 mps 603 mmHg 27%
    08:00 -4°C° 0 mm 3 mps 604 mmHg 26%
    09:00 -1°C° 0 mm 3 mps 604 mmHg 26%
    10:00 +2°C° 0 mm 2 mps 605 mmHg 25%
    11:00 +4°C° 0 mm 2 mps 605 mmHg 25%
    12:00 +6°C° 0 mm 1 mps 605 mmHg 26%
    13:00 +7°C° 0 mm 1 mps 605 mmHg 26%
    14:00 +7°C° 0 mm 1 mps 605 mmHg 27%
    15:00 +7°C° 0 mm 1 mps 604 mmHg 31%
    16:00 +6°C° 0 mm 1 mps 604 mmHg 35%
    17:00 +6°C° 0 mm 1 mps 604 mmHg 38%
    18:00 +4°C° 0 mm 1 mps 603 mmHg 40%
    19:00 +2°C° 0 mm 1 mps 603 mmHg 42%
    20:00 0°C° 0 mm 1 mps 603 mmHg 44%
    21:00 -1°C° 0 mm 1 mps 603 mmHg 43%
    22:00 -1°C° 0 mm 1 mps 603 mmHg 41%
    23:00 -1°C° 0 mm 1 mps 603 mmHg 40%

    22 February, Wednesday

    Time Temperature Precipitation Wind Pressure Humidity
    00:00 -1°C° 0 mm 1 mps 603 mmHg 39%
    01:00 -1°C° 0 mm 1 mps 603 mmHg 38%
    02:00 -2°C° 0 mm 1 mps 602 mmHg 38%
    03:00 -2°C° 0 mm 1 mps 602 mmHg 37%
    04:00 -2°C° 0 mm 1 mps 602 mmHg 37%
    05:00 -2°C° 0 mm 1 mps 602 mmHg 37%
    06:00 -3°C° 0 mm 0 mps 602 mmHg 36%
    07:00 -2°C° 0 mm 0 mps 603 mmHg 35%
    08:00 -2°C° 0 mm 0 mps 603 mmHg 34%
    09:00 +1°C° 0 mm 1 mps 604 mmHg 31%
    10:00 +3°C° 0 mm 1 mps 605 mmHg 28%
    11:00 +5°C° 0 mm 1 mps 606 mmHg 26%
    12:00 +6°C° 0 mm 1 mps 606 mmHg 27%
    13:00 +6°C° 0 mm 1 mps 606 mmHg 28%
    14:00 +5°C° 0 mm 2 mps 605 mmHg 29%
    15:00 +5°C° 0 mm 2 mps 605 mmHg 31%
    16:00 +4°C° 0 mm 2 mps 605 mmHg 34%
    17:00 +4°C° 0 mm 2 mps 605 mmHg 36%
    18:00 +2°C° 0 mm 2 mps 605 mmHg 40%
    19:00 +1°C° 0 mm 1 mps 605 mmHg 44%
    20:00 -1°C° 0 mm 1 mps 605 mmHg 48%
    21:00 -1°C° 0 mm 1 mps 605 mmHg 48%
    22:00 -1°C° 0 mm 1 mps 605 mmHg 47%
    23:00 -1°C° 0 mm 1 mps 606 mmHg 47%

    23 February, Thursday

    Time Temperature Precipitation Wind Pressure Humidity
    00:00 -2°C° 0 mm 1 mps 606 mmHg 46%
    01:00 -2°C° 0 mm 1 mps 606 mmHg 45%
    02:00 -2°C° 0 mm 1 mps 606 mmHg 45%
    03:00 -2°C° 0 mm 1 mps 605 mmHg 45%
    04:00 -2°C° 0 mm 1 mps 605 mmHg 44%
    05:00 -2°C° 0 mm 1 mps 605 mmHg 44%
    06:00 -2°C° 0 mm 1 mps 606 mmHg 42%
    07:00 -1°C° 0 mm 1 mps 607 mmHg 41%
    08:00 -1°C° 0 mm 1 mps 607 mmHg 39%
    09:00 +1°C° 0 mm 1 mps 608 mmHg 36%
    10:00 +3°C° 0 mm 1 mps 609 mmHg 32%
    11:00 +5°C° 0 mm 1 mps 609 mmHg 29%
    12:00 +6°C° 0 mm 1 mps 609 mmHg 29%
    13:00 +6°C° 0 mm 1 mps 609 mmHg 30%
    14:00 +7°C° 0 mm 1 mps 609 mmHg 30%
    15:00 +7°C° 0 mm 1 mps 609 mmHg 32%
    16:00 +6°C° 0 mm 1 mps 608 mmHg 33%
    17:00 +6°C° 0 mm 1 mps 608 mmHg 35%
    18:00 +4°C° 0 mm 1 mps 608 mmHg 39%
    19:00 +2°C° 0 mm 1 mps 608 mmHg 44%
    20:00 +1°C° 0 mm 1 mps 607 mmHg 49%
    21:00 +1°C° 0 mm 1 mps 608 mmHg 48%
    22:00 0°C° 0 mm 1 mps 608 mmHg 47%
    23:00 0°C° 0 mm 1 mps 608 mmHg 46%

    24 February, Friday

    Time Temperature Precipitation Wind Pressure Humidity
    00:00 0°C° 0 mm 1 mps 608 mmHg 45%
    01:00 0°C° 0 mm 1 mps 608 mmHg 44%
    02:00 0°C° 0 mm 1 mps 608 mmHg 43%
    03:00 0°C° 0 mm 1 mps 608 mmHg 42%
    04:00 0°C° 0 mm 1 mps 607 mmHg 41%
    05:00 0°C° 0 mm 1 mps 607 mmHg 40%
    06:00 +1°C° 0 mm 1 mps 608 mmHg 38%
    07:00 +1°C° 0 mm 1 mps 608 mmHg 37%
    08:00 +2°C° 0 mm 1 mps 609 mmHg 35%
    09:00 +4°C° 0 mm 1 mps 609 mmHg 32%
    10:00 +6°C° 0 mm 1 mps 610 mmHg 29%
    11:00 +8°C° 0 mm 1 mps 611 mmHg 26%
    12:00 +9°C° 0 mm 1 mps 610 mmHg 27%
    13:00 +9°C° 0 mm 1 mps 610 mmHg 27%
    14:00 +10°C° 0 mm 1 mps 610 mmHg 27%
    15:00 +10°C° 0 mm 1 mps 610 mmHg 30%
    16:00 +9°C° 0 mm 1 mps 609 mmHg 32%
    17:00 +9°C° 0 mm 1 mps 609 mmHg 34%
    18:00 +7°C° 0 mm 1 mps 609 mmHg 37%
    19:00 +5°C° 0 mm 1 mps 608 mmHg 40%
    20:00 +3°C° 0 mm 1 mps 608 mmHg 43%
    21:00 +3°C° 0 mm 1 mps 608 mmHg 42%
    22:00 +4°C° 0 mm 1 mps 608 mmHg 42%
    23:00 +4°C° 0 mm 1 mps 608 mmHg 41%
    Show more